FW1924 Weather Reports


time (UTC)temp
C
wind
direction
speed
KPH
gust
KPH
rain 1hr
cm
rain 24hr
cm
rain mn
cm
humidity
%
barometer
mb
20260502163018 17 183 12.9 25.7 0.00 0.00 0.00 26 1014.9
20260502161601 17 175 11.3 22.5 0.00 0.00 0.00 28 1014.9
20260502151605 13 161 0.0 16.1 0.00 0.00 0.00 45 1015.1
20260502123017 8 186 1.6 6.4 0.00 0.00 0.00 42 1014.9
20260502121609 8 209 0.0 8.0 0.00 0.00 0.00 42 1015.0
20260502120113 8 218 6.4 11.3 0.00 0.00 0.00 41 1015.0
20260502114635 8 216 6.4 12.9 0.00 0.00 0.00 41 1014.9
20260502113051 8 219 4.8 8.0 0.00 0.00 0.00 42 1015.0
20260502111544 8 206 8.0 16.1 0.00 0.00 0.00 45 1015.0
20260502110035 8 217 8.0 14.5 0.00 0.00 0.00 46 1015.0
20260502104526 8 196 8.0 16.1 0.00 0.00 0.00 46 1014.9
20260502103026 8 221 4.8 12.9 0.00 0.00 0.00 44 1015.0
20260502101519 8 190 6.4 11.3 0.00 0.00 0.00 43 1015.0
20260502071505 7 202 6.4 11.3 0.00 0.00 0.00 45 1015.5
20260502070110 7 203 1.6 6.4 0.00 0.00 0.00 46 1015.4
20260502064623 7 236 3.2 4.8 0.00 0.00 0.00 45 1015.4
20260502063104 7 250 0.0 3.2 0.00 0.00 0.00 46 1015.3
20260502061548 7 250 0.0 4.8 0.00 0.00 0.00 44 1015.2
20260502060043 8 251 3.2 6.4 0.00 0.00 0.00 43 1015.0
20260502054527 8 251 4.8 11.3 0.00 0.00 0.00 43 1015.0
20260502053018 8 256 4.8 9.7 0.00 0.00 0.00 42 1014.9
20260502051510 9 256 4.8 9.7 0.00 0.00 0.00 42 1014.9
20260502050004 9 257 4.8 9.7 0.00 0.00 0.00 41 1015.1
20260502044607 10 262 3.2 6.4 0.00 0.00 0.00 39 1015.1
20260502043125 10 268 3.2 9.7 0.00 0.00 0.00 38 1015.0
20260502041559 11 270 4.8 11.3 0.00 0.00 0.00 37 1014.9
20260502040047 11 266 3.2 11.3 0.00 0.00 0.00 36 1014.8
20260502034540 11 274 3.2 9.7 0.00 0.00 0.00 35 1014.6
20260502033032 11 270 3.2 11.3 0.00 0.00 0.00 36 1014.5
20260502031523 11 275 4.8 11.3 0.00 0.00 0.00 34 1014.2
20260502030024 12 277 4.8 12.9 0.00 0.00 0.00 34 1014.0
20260502024517 12 284 4.8 11.3 0.00 0.00 0.00 33 1013.7
20260502023007 13 259 4.8 14.5 0.00 0.00 0.00 32 1013.7
20260502021559 13 271 1.6 12.9 0.00 0.00 0.00 33 1013.6
20260502020051 14 282 4.8 16.1 0.00 0.00 0.00 31 1013.5
20260502014504 15 298 6.4 14.5 0.00 0.00 0.00 30 1013.4
20260502013059 15 313 6.4 19.3 0.00 0.00 0.00 28 1013.4
20260502011556 16 313 6.4 16.1 0.00 0.00 0.00 29 1013.3
20260502010040 17 321 6.4 20.9 0.00 0.00 0.00 27 1013.4
20260502004540 17 325 4.8 19.3 0.00 0.00 0.00 28 1013.3
20260502003036 17 5 9.7 19.3 0.00 0.00 0.00 28 1013.4
20260502001528 17 340 8.0 19.3 0.00 0.00 0.00 27 1013.4
20260502000023 17 296 4.8 19.3 0.00 0.00 0.00 27 1013.6
20260501234514 17 350 11.3 24.1 0.00 0.00 0.00 27 1013.5
20260501233003 17 319 12.9 22.5 0.00 0.00 0.00 26 1013.5
20260501231609 18 321 11.3 24.1 0.00 0.00 0.00 27 1013.7
20260501230148 18 302 11.3 24.1 0.00 0.00 0.00 25 1013.6
20260501224546 19 345 11.3 20.9 0.00 0.00 0.00 24 1013.7
20260501221530 19 328 4.8 19.3 0.00 0.00 0.00 25 1014.0
20260501220037 19 360 8.0 22.5 0.00 0.00 0.00 26 1014.2
20260501214528 19 342 14.5 20.9 0.00 0.00 0.00 25 1014.3
20260501213014 19 5 4.8 17.7 0.00 0.00 0.00 24 1014.3
20260501211505 19 338 8.0 17.7 0.00 0.00 0.00 27 1014.5
20260501210056 18 342 12.9 25.7 0.00 0.00 0.00 27 1014.6
20260501204607 19 343 6.4 20.9 0.00 0.00 0.00 26 1014.6
20260501203049 20 325 3.2 24.1 0.00 0.00 0.00 27 1014.5
20260501201543 19 341 3.2 20.9 0.00 0.00 0.00 35 1014.6
20260501200033 19 44 1.6 22.5 0.00 0.00 0.00 31 1014.9
20260501194526 19 329 3.2 16.1 0.00 0.00 0.00 27 1014.9
20260501193012 18 325 0.0 19.3 0.00 0.00 0.00 26 1015.0
20260501191502 18 308 0.0 16.1 0.00 0.00 0.00 28 1015.4
20260501190056 18 24 1.6 16.1 0.00 0.00 0.00 29 1015.5
20260501184550 18 340 8.0 16.1 0.00 0.00 0.00 29 1015.6
20260501183010 18 5 0.0 20.9 0.00 0.00 0.00 26 1015.9
20260501181601 18 340 8.0 19.3 0.00 0.00 0.00 30 1015.8
20260501180050 17 360 4.8 17.7 0.00 0.00 0.00 28 1016.0
20260501174542 17 33 3.2 19.3 0.00 0.00 0.00 32 1015.9
20260501173026 16 360 4.8 16.1 0.00 0.00 0.00 33 1016.1
20260501171514 16 355 6.4 16.1 0.00 0.00 0.00 30 1016.2
20260501170011 15 53 4.8 16.1 0.00 0.00 0.00 35 1016.1